Weather History for Key West NAF, FL

Change the Weather History Date:

Friday, October 25, 2013

  Actual Average Record
Temperature  
Mean Temperature 79 °F -  
Max Temperature 82 °F 83 °F 91 °F (1997)
Min Temperature 77 °F 74 °F 66 °F (1982)
Cooling Degree Days 14    
Growing Degree Days 29 (Base 50)    
Moisture  
Dew Point 66 °F    
Average Humidity 65    
Maximum Humidity 71    
Minimum Humidity 60    
Precipitation  
Precipitation 0.00 in - - ()
Sea Level Pressure  
Sea Level Pressure 30.09 in    
Wind  
Wind Speed 14 mph (NE)    
Max Wind Speed 17 mph    
Max Gust Speed 26 mph    
Visibility 10 miles    
Events      
Averages and records for this station are not official NWS values.
T = Trace of Precipitation, MM = Missing Value Source: NWS Daily Summary

Daily Weather History Graph

Daily Weather History Graph

Search for Another Location

Airport:

Trip Planner

Search our weather history database for the weather conditions in past years. The results will help you decide how hot, cold, wet, or windy it might be!

Date:

Astronomy

Oct. 25, 2013 Rise Set
Actual Time 7:29 AM EDT 6:51 PM EDT
Civil Twilight 7:06 AM EDT 7:14 PM EDT
Nautical Twilight 6:39 AM EDT 7:41 PM EDT
Astronomical Twilight 6:13 AM EDT 8:07 PM EDT
Moon No Moon Rise 12:59 PM EDT (10/25)
Length of Visible Light 12h 08m
Length of Day
11h 21m
Waning Gibbous, 62% of the Moon is Illuminated
Oct 25
Waning Gibbous
Oct 26
Last Quarter
Nov 3
New
Nov 10
First Quarter
Nov 17
Full

Hourly Weather History & Observations

Time (EDT) Temp. Heat Index Dew Point Humidity Pressure Visibility Wind Dir Wind Speed Gust Speed Precip Events Conditions
12:53 AM 77.0 °F - 66.9 °F 71% 30.05 in 10.0 mi NE 13.8 mph 21.9 mph N/A   Clear
1:53 AM 78.1 °F - 66.0 °F 66% 30.05 in 10.0 mi NE 15.0 mph 23.0 mph N/A   Clear
2:53 AM 78.1 °F - 64.9 °F 64% 30.05 in 10.0 mi NE 10.4 mph 18.4 mph N/A   Clear
3:53 AM 78.1 °F - 66.0 °F 66% 30.05 in 10.0 mi NE 13.8 mph 21.9 mph N/A   Clear
4:53 AM 77.0 °F - 66.0 °F 69% 30.06 in 10.0 mi NE 10.4 mph 19.6 mph N/A   Partly Cloudy
5:53 AM 77.0 °F - 66.9 °F 71% 30.08 in 10.0 mi NNE 13.8 mph 23.0 mph N/A   Clear
5:55 AM 77.0 °F - 66.2 °F 69% 30.08 in 10.0 mi NNE 13.8 mph 20.7 mph N/A   Overcast
6:53 AM 77.0 °F - 66.0 °F 69% 30.09 in 10.0 mi NE 13.8 mph 23.0 mph N/A   Overcast
7:53 AM 77.0 °F - 66.0 °F 69% 30.11 in 10.0 mi NE 16.1 mph 23.0 mph N/A   Overcast
8:53 AM 79.0 °F - 66.0 °F 64% 30.12 in 10.0 mi NNE 13.8 mph 23.0 mph N/A   Mostly Cloudy
9:53 AM 79.0 °F - 66.0 °F 64% 30.13 in 10.0 mi NE 15.0 mph 25.3 mph N/A   Mostly Cloudy
10:53 AM 80.1 °F 81.9 °F 64.9 °F 60% 30.13 in 10.0 mi NE 17.3 mph 26.5 mph N/A   Mostly Cloudy
11:53 AM 81.0 °F 83.3 °F 66.9 °F 62% 30.13 in 10.0 mi NNE 12.7 mph 20.7 mph N/A   Clear
12:53 PM 80.1 °F 82.7 °F 68.0 °F 67% 30.12 in 10.0 mi NNE 17.3 mph 23.0 mph N/A   Scattered Clouds
1:53 PM 80.1 °F 82.3 °F 66.9 °F 64% 30.09 in 10.0 mi NNE 12.7 mph 21.9 mph N/A   Mostly Cloudy
2:53 PM 80.1 °F 82.3 °F 66.9 °F 64% 30.07 in 10.0 mi NE 16.1 mph 26.5 mph N/A   Mostly Cloudy
3:53 PM 81.0 °F 83.0 °F 66.0 °F 60% 30.07 in 10.0 mi NE 16.1 mph 20.7 mph N/A   Mostly Cloudy
4:53 PM 81.0 °F 83.3 °F 66.9 °F 62% 30.08 in 10.0 mi NE 13.8 mph 20.7 mph N/A   Mostly Cloudy
5:53 PM 80.1 °F 82.3 °F 66.9 °F 64% 30.08 in 10.0 mi ENE 16.1 mph 25.3 mph N/A   Mostly Cloudy
6:53 PM 79.0 °F - 64.9 °F 62% 30.08 in 10.0 mi ENE 16.1 mph 25.3 mph N/A   Scattered Clouds
7:53 PM 78.1 °F - 63.0 °F 60% 30.09 in 10.0 mi ENE 15.0 mph 21.9 mph N/A   Mostly Cloudy
8:53 PM 78.1 °F - 63.0 °F 60% 30.10 in 10.0 mi NE 12.7 mph 23.0 mph N/A   Scattered Clouds
9:53 PM 78.1 °F - 63.0 °F 60% 30.11 in 10.0 mi NE 12.7 mph 20.7 mph N/A   Scattered Clouds
10:53 PM 77.0 °F - 64.0 °F 64% 30.12 in 10.0 mi NE 12.7 mph 20.7 mph N/A   Clear
11:53 PM 77.0 °F - 66.0 °F 69% 30.12 in 10.0 mi NE 11.5 mph 21.9 mph N/A   Clear